�������l�o���
Date,Time,MP-1(��Sv/h),MP-2(��Sv/h),MP-3(��Sv/h),MP-4(��Sv/h),MP-5(��Sv/h),MP-6(��Sv/h),MP-7(��Sv/h),MP-8(��Sv/h),����,����(m/s),���J
2018/01/26,00:00,0.740,1.254,0.815,1.476,1.002,0.447,0.813,0.801,�쐼,7.1,��
2018/01/26,00:10,0.739,1.253,0.817,1.477,1.002,0.446,0.814,0.802,�쐼,6.5,��
2018/01/26,00:20,0.739,1.257,0.816,1.478,0.998,0.447,0.810,0.803,�쐼,6.0,��
2018/01/26,00:30,0.742,1.253,0.816,1.476,1.000,0.446,0.814,0.801,�쐼,5.5,��
2018/01/26,00:40,0.741,1.253,0.817,1.477,1.000,0.444,0.812,0.804,�쐼,5.8,��
2018/01/26,00:50,0.742,1.257,0.815,1.477,1.002,0.444,0.813,0.802,�쐼,5.2,��
2018/01/26,01:00,0.741,1.256,0.816,1.476,1.001,0.446,0.814,0.802,�쐼,5.5,��
2018/01/26,01:10,0.742,1.254,0.816,1.477,1.001,0.446,0.815,0.802,�쐼,5.7,��
2018/01/26,01:20,0.741,1.253,0.817,1.478,1.000,0.448,0.811,0.802,�쐼,4.6,��
2018/01/26,01:30,0.740,1.255,0.816,1.478,0.999,0.447,0.814,0.804,�쐼,4.8,��
2018/01/26,01:40,0.742,1.255,0.815,1.478,1.001,0.447,0.813,0.804,���쐼,5.2,��
2018/01/26,01:50,0.742,1.256,0.816,1.478,0.999,0.445,0.812,0.802,�쐼,3.1,��
2018/01/26,02:00,0.741,1.255,0.817,1.477,1.001,0.446,0.812,0.803,�쐼,3.6,��
2018/01/26,02:10,0.741,1.256,0.816,1.477,1.003,0.447,0.812,0.802,�쐼,3.0,��
2018/01/26,02:20,0.739,1.254,0.816,1.477,1.001,0.447,0.811,0.803,�쐼,3.3,��
2018/01/26,02:30,0.739,1.253,0.816,1.479,1.000,0.445,0.812,0.801,�쐼,4.1,��
2018/01/26,02:40,0.739,1.254,0.814,1.480,0.999,0.445,0.812,0.802,�쐼,3.3,��
2018/01/26,02:50,0.740,1.253,0.815,1.478,1.002,0.447,0.814,0.801,���쐼,2.5,��
2018/01/26,03:00,0.739,1.255,0.814,1.477,1.000,0.445,0.813,0.802,���쐼,3.2,��
2018/01/26,03:10,0.741,1.255,0.815,1.478,1.001,0.446,0.812,0.802,���쐼,3.0,��
2018/01/26,03:20,0.743,1.256,0.817,1.478,1.001,0.448,0.811,0.801,���쐼,3.8,��
2018/01/26,03:30,0.740,1.254,0.817,1.479,1.001,0.445,0.812,0.802,�쐼,3.3,��
2018/01/26,03:40,0.740,1.257,0.815,1.476,1.000,0.445,0.812,0.802,�쐼,3.2,��
2018/01/26,03:50,0.743,1.254,0.816,1.479,1.003,0.445,0.812,0.801,���쐼,3.7,��
2018/01/26,04:00,0.742,1.255,0.814,1.478,1.001,0.446,0.811,0.803,�쐼,3.9,��
2018/01/26,04:10,0.741,1.254,0.816,1.475,1.001,0.447,0.813,0.803,���쐼,4.8,��
2018/01/26,04:20,0.740,1.255,0.814,1.479,1.001,0.444,0.814,0.804,�쐼,5.2,��
2018/01/26,04:30,0.741,1.255,0.814,1.478,1.001,0.444,0.811,0.802,���쐼,5.2,��
2018/01/26,04:40,0.739,1.254,0.817,1.478,1.002,0.447,0.813,0.802,�쐼,4.0,��
2018/01/26,04:50,0.741,1.254,0.818,1.477,0.999,0.445,0.813,0.802,���쐼,4.4,��
2018/01/26,05:00,0.740,1.256,0.815,1.478,1.001,0.444,0.814,0.802,���쐼,4.3,��
2018/01/26,05:10,0.741,1.255,0.817,1.477,1.002,0.446,0.813,0.803,���쐼,4.6,��
2018/01/26,05:20,0.741,1.254,0.815,1.479,1.001,0.446,0.812,0.802,���쐼,4.5,��
2018/01/26,05:30,0.741,1.257,0.817,1.478,1.000,0.445,0.813,0.802,��,4.9,��
2018/01/26,05:40,0.739,1.255,0.816,1.476,1.001,0.446,0.813,0.802,��,4.2,��
2018/01/26,05:50,0.741,1.255,0.815,1.477,1.001,0.444,0.813,0.802,���쐼,3.2,��
2018/01/26,06:00,0.742,1.255,0.817,1.479,1.000,0.445,0.813,0.803,���쐼,2.5,��
2018/01/26,06:10,0.741,1.253,0.815,1.478,1.001,0.445,0.813,0.802,���쐼,3.4,��
2018/01/26,06:20,0.741,1.254,0.815,1.477,1.001,0.445,0.812,0.801,���쐼,4.4,��
2018/01/26,06:30,0.741,1.254,0.815,1.477,1.001,0.443,0.813,0.804,���쐼,3.9,��
2018/01/26,06:40,0.741,1.253,0.816,1.477,1.002,0.444,0.812,0.802,��,4.1,��
2018/01/26,06:50,0.742,1.253,0.816,1.477,1.001,0.445,0.812,0.803,���쐼,3.5,��
2018/01/26,07:00,0.741,1.255,0.815,1.478,1.000,0.444,0.813,0.802,���쐼,4.2,��
2018/01/26,07:10,0.741,1.256,0.814,1.479,0.999,0.443,0.813,0.803,��,3.8,��
2018/01/26,07:20,0.741,1.255,0.817,1.478,1.001,0.446,0.811,0.804,�쐼,4.3,��
2018/01/26,07:30,0.740,1.255,0.816,1.476,0.998,0.444,0.813,0.802,���쐼,3.2,��
2018/01/26,07:40,0.740,1.255,0.815,1.481,1.000,0.445,0.813,0.804,���쐼,2.8,��
2018/01/26,07:50,0.741,1.256,0.815,1.480,1.001,0.444,0.812,0.802,���쐼,3.4,��
2018/01/26,08:00,0.741,1.254,0.817,1.477,0.999,0.445,0.811,0.803,��,4.2,��
2018/01/26,08:10,0.741,1.256,0.817,1.479,1.002,0.445,0.813,0.804,��,4.0,��
2018/01/26,08:20,0.738,1.253,0.816,1.479,1.001,0.445,0.812,0.803,��,3.4,��
2018/01/26,08:30,0.741,1.256,0.817,1.480,1.000,0.445,0.812,0.803,���k��,4.8,��
2018/01/26,08:40,0.743,1.257,0.816,1.479,1.001,0.444,0.812,0.803,��,3.7,��
2018/01/26,08:50,0.741,1.255,0.817,1.480,1.000,0.443,0.813,0.804,���k��,5.8,��
2018/01/26,09:00,0.744,1.255,0.815,1.481,1.001,0.443,0.813,0.803,�k��,5.5,��
2018/01/26,09:10,0.743,1.253,0.816,1.480,1.001,0.442,0.814,0.803,���k��,6.9,��
2018/01/26,09:20,0.742,1.255,0.817,1.478,1.003,0.443,0.814,0.802,�k��,3.3,��
2018/01/26,09:30,0.743,1.250,0.818,1.480,1.004,0.444,0.815,0.803,�k,3.0,��
2018/01/26,09:40,0.743,1.255,0.816,1.480,1.001,0.441,0.813,0.802,�k�k��,3.6,��
2018/01/26,09:50,0.741,1.257,0.817,1.481,0.999,0.443,0.813,0.803,�k��,2.8,��
2018/01/26,10:00,0.742,1.254,0.817,1.480,1.002,0.445,0.813,0.803,�k�k��,2.0,��
2018/01/26,10:10,0.743,1.254,0.818,1.480,1.001,0.445,0.814,0.803,�k��,3.8,��
2018/01/26,10:20,0.743,1.257,0.818,1.482,1.003,0.443,0.814,0.803,�k��,2.8,��
2018/01/26,10:30,0.743,1.258,0.818,1.482,1.003,0.442,0.814,0.802,�k��,1.9,��
2018/01/26,10:40,0.744,1.256,0.821,1.480,1.003,0.442,0.814,0.803,�k��,1.9,��
2018/01/26,10:50,0.744,1.253,0.819,1.481,1.003,0.445,0.814,0.804,�쓌,2.5,��
2018/01/26,11:00,0.744,1.257,0.819,1.479,1.001,0.442,0.814,0.803,�k��,4.9,��
2018/01/26,11:10,0.746,1.254,0.821,1.481,1.004,0.446,0.815,0.803,�k��,3.8,��
2018/01/26,11:20,0.745,1.256,0.819,1.482,1.003,0.444,0.813,0.803,�k�k��,2.3,��
2018/01/26,11:30,0.745,1.257,0.820,1.481,1.004,0.445,0.814,0.806,�k,1.9,��
2018/01/26,11:40,0.747,1.257,0.820,1.483,1.004,0.446,0.813,0.805,���k��,2.6,��
2018/01/26,11:50,0.746,1.260,0.820,1.483,1.008,0.446,0.816,0.804,�k,3.1,��
2018/01/26,12:00,0.746,1.260,0.819,1.484,1.005,0.445,0.814,0.805,�k�k��,2.6,��
2018/01/26,12:10,0.746,1.260,0.819,1.482,1.006,0.447,0.815,0.806,�k,4.7,��
2018/01/26,12:20,0.748,1.261,0.822,1.485,1.006,0.446,0.816,0.804,�k�k��,3.3,��
2018/01/26,12:30,0.745,1.258,0.822,1.482,1.008,0.447,0.815,0.805,�k�k��,3.3,��
2018/01/26,12:40,0.744,1.259,0.822,1.484,1.008,0.448,0.815,0.804,�k�k��,4.8,��
2018/01/26,12:50,0.746,1.260,0.819,1.482,1.010,0.446,0.816,0.807,�k,4.3,��
2018/01/26,13:00,0.742,1.256,0.819,1.483,1.007,0.447,0.815,0.807,�k�k��,4.0,��
2018/01/26,13:10,0.747,1.261,0.821,1.483,1.008,0.446,0.816,0.805,�k�k��,4.8,��
2018/01/26,13:20,0.746,1.258,0.820,1.483,1.012,0.447,0.814,0.807,�k�k��,3.9,��
2018/01/26,13:30,0.748,1.261,0.816,1.487,1.012,0.447,0.815,0.806,�k�k��,2.5,��
2018/01/26,13:40,0.748,1.260,0.818,1.485,1.011,0.448,0.818,0.806,�k,2.9,��
2018/01/26,13:50,0.747,1.260,0.820,1.484,1.012,0.448,0.818,0.804,�k�k��,3.4,��
2018/01/26,14:00,0.748,1.259,0.821,1.484,1.015,0.448,0.816,0.805,�k�k��,1.2,��
2018/01/26,14:10,0.747,1.262,0.823,1.484,1.013,0.447,0.815,0.805,���k��,3.8,��
2018/01/26,14:20,0.748,1.263,0.824,1.482,1.014,0.448,0.815,0.807,�k��,3.3,��
2018/01/26,14:30,0.750,1.264,0.825,1.485,1.015,0.446,0.818,0.807,��,3.8,��
2018/01/26,14:40,0.749,1.265,0.824,1.481,1.016,0.448,0.817,0.806,���k��,5.7,��
2018/01/26,14:50,0.751,1.262,0.823,1.483,1.014,0.447,0.818,0.807,���k��,6.3,��
2018/01/26,15:00,0.750,1.264,0.824,1.486,1.015,0.447,0.816,0.807,���k��,5.5,��
2018/01/26,15:10,0.750,1.266,0.825,1.485,1.015,0.448,0.818,0.806,���k��,6.7,��
2018/01/26,15:20,0.750,1.266,0.825,1.485,1.017,0.450,0.819,0.806,���k��,5.4,��
2018/01/26,15:30,0.752,1.266,0.826,1.486,1.019,0.449,0.818,0.808,��,9.5,��
2018/01/26,15:40,0.748,1.266,0.831,1.489,1.019,0.448,0.816,0.806,�k,3.7,��
2018/01/26,15:50,0.749,1.266,0.827,1.487,1.018,0.449,0.817,0.806,�k�k��,6.9,��
2018/01/26,16:00,0.750,1.268,0.825,1.485,1.019,0.449,0.817,0.807,�k�k��,7.4,��
2018/01/26,16:10,0.748,1.268,0.825,1.486,1.020,0.448,0.817,0.808,�k�k��,6.5,��
2018/01/26,16:20,0.748,1.264,0.826,1.489,1.018,0.449,0.817,0.805,�k��,5.4,��
2018/01/26,16:30,0.751,1.266,0.825,1.485,1.018,0.448,0.818,0.806,�k��,5.7,��
2018/01/26,16:40,0.750,1.269,0.822,1.486,1.017,0.449,0.817,0.806,�k��,4.8,��
2018/01/26,16:50,0.748,1.267,0.825,1.488,1.019,0.448,0.818,0.806,�k��,4.6,��
2018/01/26,17:00,0.748,1.269,0.824,1.488,1.018,0.448,0.816,0.806,�k��,4.3,��
2018/01/26,17:10,0.747,1.269,0.824,1.487,1.018,0.448,0.818,0.804,�k��,3.3,��
2018/01/26,17:20,0.746,1.269,0.823,1.488,1.021,0.448,0.817,0.805,�k�k��,3.9,��
2018/01/26,17:30,0.745,1.269,0.828,1.486,1.020,0.448,0.818,0.807,�k��,3.6,��
2018/01/26,17:40,0.747,1.268,0.825,1.487,1.020,0.448,0.816,0.806,�k��,4.4,��
2018/01/26,17:50,0.744,1.268,0.825,1.488,1.019,0.450,0.816,0.806,�k�k��,2.8,��
2018/01/26,18:00,0.748,1.269,0.823,1.488,1.021,0.449,0.815,0.805,�k,2.5,��
2018/01/26,18:10,0.748,1.267,0.824,1.487,1.019,0.449,0.815,0.805,�k�k��,2.6,��
2018/01/26,18:20,0.749,1.269,0.825,1.489,1.022,0.447,0.814,0.805,�k�k��,2.6,��
2018/01/26,18:30,0.749,1.268,0.826,1.488,1.019,0.449,0.816,0.805,�k,2.2,��
2018/01/26,18:40,0.745,1.268,0.826,1.487,1.020,0.448,0.816,0.806,�k,2.0,��
2018/01/26,18:50,0.747,1.268,0.824,1.487,1.019,0.448,0.816,0.805,�k,2.5,��
2018/01/26,19:00,0.746,1.267,0.823,1.487,1.019,0.447,0.815,0.806,�k�k��,3.9,��
2018/01/26,19:10,0.745,1.268,0.823,1.486,1.019,0.449,0.816,0.807,�k�k��,3.8,��
2018/01/26,19:20,0.745,1.268,0.822,1.487,1.019,0.447,0.815,0.805,�k�k��,3.8,��
2018/01/26,19:30,0.744,1.268,0.824,1.484,1.014,0.448,0.816,0.805,�k�k��,3.4,��
2018/01/26,19:40,0.744,1.265,0.823,1.484,1.018,0.446,0.816,0.807,�k�k��,2.6,��
2018/01/26,19:50,0.744,1.265,0.825,1.486,1.018,0.447,0.815,0.806,�k��,1.5,��
2018/01/26,20:00,0.744,1.267,0.820,1.486,1.018,0.447,0.815,0.805,���k��,1.1,��
2018/01/26,20:10,0.743,1.268,0.824,1.489,1.016,0.447,0.816,0.805,�k�k��,1.2,��
2018/01/26,20:20,0.741,1.267,0.823,1.484,1.018,0.448,0.816,0.805,�k��,1.5,��
2018/01/26,20:30,0.743,1.266,0.822,1.486,1.018,0.447,0.815,0.807,���k��,2.5,��
2018/01/26,20:40,0.743,1.265,0.823,1.483,1.017,0.447,0.817,0.803,���k��,4.3,��
2018/01/26,20:50,0.746,1.267,0.822,1.486,1.017,0.446,0.814,0.803,���k��,6.5,��
2018/01/26,21:00,0.744,1.266,0.822,1.486,1.018,0.447,0.815,0.805,�k��,5.0,��
2018/01/26,21:10,0.744,1.265,0.823,1.487,1.016,0.447,0.815,0.806,�k��,2.3,��
2018/01/26,21:20,0.745,1.267,0.823,1.485,1.017,0.447,0.815,0.805,�k�k��,2.3,��
2018/01/26,21:30,0.744,1.266,0.823,1.485,1.018,0.448,0.814,0.803,�k�k��,3.4,��
2018/01/26,21:40,0.744,1.264,0.824,1.488,1.017,0.448,0.816,0.805,�k�k��,4.9,��
2018/01/26,21:50,0.744,1.264,0.823,1.486,1.018,0.447,0.814,0.805,�k��,5.0,��
2018/01/26,22:00,0.743,1.267,0.823,1.486,1.016,0.447,0.814,0.804,�k��,7.1,��
2018/01/26,22:10,0.744,1.265,0.822,1.485,1.016,0.447,0.815,0.805,�k��,6.5,��
2018/01/26,22:20,0.743,1.265,0.822,1.485,1.020,0.446,0.814,0.803,�k��,6.5,��
2018/01/26,22:30,0.743,1.266,0.823,1.485,1.017,0.448,0.814,0.804,�k��,6.2,��
2018/01/26,22:40,0.742,1.267,0.822,1.488,1.017,0.446,0.815,0.806,�k��,6.1,��
2018/01/26,22:50,0.744,1.268,0.821,1.486,1.016,0.446,0.814,0.804,�k��,5.6,��
2018/01/26,23:00,0.743,1.265,0.823,1.485,1.015,0.447,0.814,0.804,�k��,5.2,��
2018/01/26,23:10,0.742,1.262,0.823,1.486,1.016,0.446,0.814,0.804,���k��,4.7,��
2018/01/26,23:20,0.741,1.264,0.822,1.486,1.015,0.447,0.815,0.804,���k��,5.2,��
2018/01/26,23:30,0.743,1.264,0.822,1.482,1.016,0.447,0.816,0.803,��,4.9,��
2018/01/26,23:40,0.743,1.267,0.823,1.484,1.014,0.446,0.814,0.804,���k��,5.1,��
2018/01/26,23:50,0.741,1.265,0.823,1.486,1.015,0.448,0.814,0.805,���k��,4.7,��
